Vorticity
1 2 -0 5 8 4 8 9 11 11 7 5 6 6 7 7 6 5 7 12 16 17 18 16 14 13 15 15 15 17 15 16 21 16 17 16 16 16
2 -0 2 9 6 7 10 13 10 6 4 7 8 8 8 8 8 11 16 17 15 14 14 15 16 17 17 18 16 14 17 15 15 14 11 9 8 6
2 0 7 9 6 10 13 9 6 6 7 7 7 8 8 10 13 17 17 14 15 17 19 20 20 15 17 21 19 15 14 11 9 9 9 8 9 7
2 2 9 7 10 13 9 7 7 8 8 9 7 8 12 13 17 16 15 15 18 21 17 17 18 14 10 9 9 8 7 9 10 11 16 16 20 16
3 7 8 10 13 9 7 8 9 10 8 7 9 12 14 21 17 14 14 19 17 17 14 10 9 11 10 9 10 13 14 12 13 12 15 12 11 15
5 10 11 13 8 7 9 10 8 8 8 9 12 17 20 16 13 16 17 14 14 12 13 14 10 10 12 12 13 14 15 15 14 12 10 16 21 19
12 11 12 8 8 9 8 8 10 10 11 14 19 19 15 14 15 13 12 9 14 12 7 12 12 13 14 13 10 15 14 10 9 10 17 20 12 11
12 11 8 9 10 8 8 10 11 13 16 19 16 15 14 15 11 8 10 9 12 16 15 11 13 11 14 14 13 15 12 10 12 16 22 13 8 5
9 8 9 9 8 8 10 12 14 19 20 15 13 13 12 11 9 9 8 11 11 14 11 10 10 13 17 17 10 16 14 12 10 15 20 12 5 2
9 10 8 8 8 12 10 13 18 21 16 15 14 13 9 9 8 8 10 9 12 12 10 12 9 12 15 17 13 18 18 12 11 13 17 13 7 2
9 8 8 11 10 11 16 18 19 19 14 15 12 9 9 9 11 10 12 9 11 12 19 12 10 14 14 12 18 12 20 17 16 8 9 14 8 2
10 9 11 11 12 16 16 16 17 14 14 12 10 10 11 13 14 11 8 6 7 11 17 8 8 8 13 10 8 11 18 17 16 15 12 10 9 5
8 11 11 13 16 17 15 17 13 12 10 11 11 12 15 12 10 9 10 12 13 12 11 8 8 10 8 9 8 13 15 18 17 17 15 16 14 9
11 12 12 14 17 16 18 13 11 10 11 11 11 13 11 10 10 12 14 11 10 10 11 12 11 13 11 12 15 16 18 17 19 18 17 18 16 12
12 12 13 17 17 17 15 11 10 10 10 10 13 11 8 10 13 10 9 9 12 16 11 14 13 12 12 13 12 17 15 14 15 16 17 20 17 12
12 14 17 18 16 17 11 10 10 10 9 10 11 9 8 13 11 7 8 9 11 14 13 13 12 13 15 15 14 13 15 11 10 13 15 15 14 12
14 19 19 17 19 12 10 11 10 9 10 12 10 8 9 10 9 9 8 9 11 10 11 14 14 15 15 14 16 20 18 14 14 14 15 15 15 19
19 17 18 20 14 11 12 11 9 10 11 11 9 7 8 9 9 11 10 10 11 12 13 14 14 17 17 19 15 17 19 13 12 10 11 15 19 13
17 20 19 18 10 11 11 10 11 11 11 8 8 9 10 12 11 12 12 12 12 13 17 16 15 10 10 15 11 16 12 14 12 15 14 13 12 14
22 19 20 11 11 11 10 11 11 9 8 10 12 14 13 11 12 14 13 12 13 15 15 17 11 9 9 8 13 20 17 11 10 11 12 13 14 20
22 19 12 11 11 10 11 10 8 9 11 15 14 11 10 12 13 14 14 15 15 14 15 12 9 9 13 18 20 18 17 12 9 12 10 9 17 23
20 12 11 12 11 11 11 10 10 12 16 12 10 11 13 14 14 14 14 15 14 12 12 11 9 11 17 17 14 13 13 13 12 20 18 12 13 10
12 11 12 11 11 11 10 10 12 14 11 11 10 10 11 15 14 14 13 14 13 11 11 12 10 10 17 16 12 13 11 16 18 23 21 16 19 14
Height
3077 3073 3070 3065 3061 3055 3049 3043 3036 3030 3028 3029 3022 3018 3013 3006 2999 2992 2986 2980 2973 2968 2962 2955 2950 2942 2939 2934 2931 2928 2925 2922 2920 2919 2918 2917 2917 2917
3069 3066 3061 3056 3051 3046 3040 3035 3029 3021 3013 3012 3008 3003 2998 2993 2986 2979 2972 2964 2958 2953 2948 2941 2935 2930 2925 2921 2918 2915 2914 2911 2908 2907 2906 2905 2905 2905
3060 3057 3052 3047 3042 3036 3030 3025 3019 3012 3005 3000 2994 2988 2982 2975 2969 2963 2957 2950 2945 2941 2934 2929 2923 2917 2913 2910 2906 2905 2903 2900 2898 2895 2894 2893 2892 2892
3052 3047 3042 3036 3031 3026 3020 3015 3008 3002 2994 2987 2981 2975 2968 2961 2954 2947 2942 2937 2931 2927 2922 2917 2912 2906 2903 2899 2897 2893 2891 2888 2885 2883 2881 2881 2879 2878
3043 3038 3032 3027 3021 3015 3009 3004 2997 2991 2984 2975 2968 2962 2955 2950 2942 2936 2930 2925 2921 2916 2911 2907 2901 2897 2893 2889 2885 2881 2878 2874 2872 2870 2869 2868 2866 2865
3033 3027 3022 3016 3010 3004 2998 2992 2985 2978 2971 2964 2956 2949 2943 2937 2929 2923 2921 2915 2912 2907 2901 2896 2891 2887 2883 2877 2873 2869 2865 2862 2860 2859 2857 2856 2854 2854
3023 3018 3012 3005 2999 2992 2985 2978 2972 2966 2958 2950 2943 2936 2931 2927 2920 2915 2909 2904 2902 2896 2890 2887 2880 2877 2874 2868 2863 2859 2855 2852 2850 2849 2847 2845 2845 2846
3014 3008 3002 2996 2989 2982 2975 2968 2962 2954 2945 2936 2931 2926 2921 2916 2910 2904 2899 2893 2889 2888 2879 2876 2871 2867 2863 2858 2854 2849 2846 2842 2840 2839 2837 2836 2837 2836
3003 2997 2992 2985 2978 2971 2964 2958 2952 2944 2935 2928 2922 2917 2912 2908 2902 2895 2890 2884 2880 2877 2869 2862 2863 2856 2852 2848 2844 2840 2836 2832 2829 2828 2827 2827 2827 2827
2993 2987 2980 2973 2967 2961 2952 2945 2940 2934 2928 2922 2916 2911 2905 2899 2893 2886 2882 2875 2872 2869 2863 2851 2849 2845 2841 2838 2835 2831 2826 2822 2818 2817 2816 2817 2817 2817
2983 2976 2969 2963 2956 2948 2941 2935 2931 2926 2920 2915 2909 2903 2898 2893 2887 2880 2876 2868 2863 2859 2858 2843 2840 2832 2829 2828 2826 2822 2818 2813 2809 2806 2804 2805 2805 2805
2972 2966 2960 2952 2945 2939 2932 2926 2921 2916 2911 2908 2904 2899 2893 2888 2882 2875 2868 2861 2855 2847 2848 2835 2829 2823 2812 2815 2813 2811 2807 2803 2799 2796 2794 2793 2793 2791
2964 2958 2951 2943 2936 2929 2923 2917 2912 2907 2904 2900 2896 2892 2888 2882 2877 2871 2864 2857 2850 2843 2841 2829 2820 2816 2809 2800 2799 2799 2796 2792 2788 2787 2784 2782 2781 2779
2952 2946 2938 2932 2926 2920 2915 2909 2905 2901 2897 2893 2890 2886 2881 2876 2871 2864 2859 2851 2846 2837 2831 2824 2813 2808 2800 2793 2787 2787 2785 2782 2778 2776 2773 2772 2771 2770
2941 2935 2928 2922 2917 2912 2907 2903 2900 2895 2891 2888 2884 2880 2874 2869 2863 2857 2853 2845 2840 2834 2826 2818 2808 2802 2795 2786 2778 2777 2772 2771 2769 2765 2762 2761 2760 2759
2932 2926 2919 2914 2909 2906 2902 2897 2893 2890 2886 2882 2878 2873 2868 2863 2858 2851 2844 2838 2831 2827 2822 2812 2803 2795 2787 2781 2774 2768 2766 2758 2757 2754 2751 2750 2749 2747
2922 2917 2912 2907 2903 2899 2896 2892 2889 2885 2882 2877 2872 2868 2863 2857 2852 2845 2838 2831 2823 2815 2811 2806 2798 2789 2782 2775 2769 2764 2757 2753 2750 2744 2741 2738 2739 2736
2913 2908 2903 2900 2897 2894 2891 2888 2884 2881 2877 2873 2868 2862 2856 2850 2844 2839 2831 2824 2817 2810 2803 2796 2788 2781 2776 2771 2761 2754 2751 2744 2740 2736 2733 2726 2726 2727
2904 2900 2897 2895 2892 2889 2887 2884 2881 2877 2873 2868 2863 2857 2851 2845 2838 2832 2826 2819 2811 2804 2798 2790 2781 2773 2765 2759 2759 2751 2740 2737 2731 2727 2724 2719 2712 2712
2896 2894 2892 2890 2888 2886 2883 2881 2877 2873 2869 2864 2859 2852 2845 2839 2833 2827 2820 2812 2805 2798 2792 2786 2779 2771 2762 2753 2746 2746 2739 2730 2724 2718 2714 2710 2705 2700
2891 2889 2889 2887 2885 2883 2880 2877 2873 2869 2864 2860 2854 2848 2842 2836 2830 2823 2816 2810 2802 2795 2788 2782 2776 2769 2760 2752 2744 2739 2735 2728 2719 2710 2704 2698 2694 2691
2887 2887 2886 2885 2883 2881 2878 2874 2870 2866 2862 2857 2851 2846 2840 2833 2827 2820 2813 2806 2799 2792 2785 2778 2771 2764 2757 2747 2740 2733 2726 2721 2716 2708 2700 2693 2687 2682
2886 2885 2885 2883 2881 2878 2875 2871 2867 2863 2859 2854 2850 2844 2838 2832 2826 2819 2812 2804 2797 2789 2781 2775 2769 2762 2753 2744 2737 2729 2721 2714 2706 2700 2696 2689 2684 2679